WetterOnline ( https://www.wetteronline.de )

Wetter aktuell Vogelsberg

Aktuelles Wetter: Hoherodskopf/Vogelsberg (743m)

6-stündlich | Neueste Meldungen
Ortszeit Temperatur Wetter
So, 19.09. 14:00 11.4° C bewölkt
So, 19.09. 8:00 8.2° C bewölkt
So, 19.09. 2:00 9.8° C leicht bewölkt
Sa, 18.09. 20:00 11.2° C wolkenlos
Sa, 18.09. 14:00 13.9° C fast wolkenlos
Sa, 18.09. 8:00 11.7° C wolkenlos
Sa, 18.09. 2:00 11.4° C wolkenlos
Fr, 17.09. 20:00 12.4° C fast wolkenlos
Ortszeit Temperatur Wetter
So, 19.09. 17:00 9.7° C bedeckt
So, 19.09. 16:50 9.7° C bedeckt
So, 19.09. 16:40 9.7° C bedeckt
So, 19.09. 16:30 10.0° C bedeckt
So, 19.09. 16:20 10.0° C bedeckt
So, 19.09. 16:10 10.2° C bedeckt
So, 19.09. 16:00 10.5° C bedeckt
So, 19.09. 15:30 10.5° C leicht bewölkt
So, 19.09. 15:00 10.9° C leicht bewölkt
So, 19.09. 14:30 11.8° C wolkig
So, 19.09. 14:00 11.4° C bewölkt
Ortszeit Relative Feuchte Sichtweite
So, 19.09. 14:00 85% 35 km
So, 19.09. 8:00 100% 5.0 km
So, 19.09. 2:00 99% 7 km
Sa, 18.09. 20:00 85% 60 km
Sa, 18.09. 14:00 72% 30 km
Sa, 18.09. 8:00 93% 4.7 km
Sa, 18.09. 2:00 92% 9 km
Fr, 17.09. 20:00 90% 13 km
Ortszeit Relative Feuchte Sichtweite
So, 19.09. 17:00 85% 40 km
So, 19.09. 16:50 85% -
So, 19.09. 16:40 84% -
So, 19.09. 16:30 84% 30 km
So, 19.09. 16:20 84% -
So, 19.09. 16:10 85% -
So, 19.09. 16:00 84% 35 km
So, 19.09. 15:30 85% 35 km
So, 19.09. 15:00 83% 30 km
So, 19.09. 14:30 84% 30 km
So, 19.09. 14:00 85% 35 km
Ortszeit Niederschlagsmenge Niederschlagsart
So, 19.09. 14:00 0.0 l/m2 in 6 Std. -
So, 19.09. 8:00 0.1 l/m2 in 12 Std. -
So, 19.09. 2:00 0.0 l/m2 in 6 Std. -
Sa, 18.09. 20:00 0.0 l/m2 in 12 Std. -
Sa, 18.09. 14:00 0.0 l/m2 in 6 Std. -
Sa, 18.09. 8:00 0.0 l/m2 in 12 Std. -
Sa, 18.09. 2:00 0.0 l/m2 in 6 Std. -
Fr, 17.09. 20:00 0.0 l/m2 in 12 Std. -
Ortszeit Niederschlagsmenge Niederschlagsart
So, 19.09. 17:00 0.0 l/m2 in 1 Std. -
So, 19.09. 16:50 keine Meldung -
So, 19.09. 16:40 keine Meldung -
So, 19.09. 16:30 0.0 l/m2 in 1 Std. -
So, 19.09. 16:20 keine Meldung -
So, 19.09. 16:10 keine Meldung -
So, 19.09. 16:00 0.0 l/m2 in 1 Std. -
So, 19.09. 15:30 0.0 l/m2 in 1 Std. -
So, 19.09. 15:00 0.0 l/m2 in 1 Std. -
So, 19.09. 14:30 0.0 l/m2 in 1 Std. -
So, 19.09. 14:00 0.0 l/m2 in 1 Std. -
Ortszeit Stärke Spitze Richtung
km/h Bft. km/h Grad Sektor
So, 19.09. 14:00 13 3 37 50° NO
So, 19.09. 8:00 14 3 29 60° NO
So, 19.09. 2:00 13 3 43 70° O
Sa, 18.09. 20:00 15 3 26 60° NO
Sa, 18.09. 14:00 11 2 25 360° N
Sa, 18.09. 8:00 13 3 22 360° N
Sa, 18.09. 2:00 9 2 15 300° NW
Fr, 17.09. 20:00 7 2 18 270° W
Ortszeit Stärke Spitze Richtung
km/h Bft. km/h Grad Sektor
So, 19.09. 17:00 17 3 28 50° NO
So, 19.09. 16:50 17 3 - 50° NO
So, 19.09. 16:40 18 3 - 50° NO
So, 19.09. 16:30 13 3 24 50° NO
So, 19.09. 16:20 13 3 - 50° NO
So, 19.09. 16:10 14 3 - 60° NO
So, 19.09. 16:00 14 3 29 60° NO
So, 19.09. 15:30 13 3 26 70° O
So, 19.09. 15:00 15 3 28 60° NO
So, 19.09. 14:30 13 3 28 60° NO
So, 19.09. 14:00 13 3 26 50° NO
Ortszeit Untergrenze Bedeckung Gattung
total tief tief mittel hoch
So, 19.09. 14:00 120 m 7/8 7/8 - - -
So, 19.09. 8:00 30 m 7/8 7/8 - - -
So, 19.09. 2:00 30 m 3/8 3/8 - - -
Sa, 18.09. 20:00 - 0/8 0/8 - - -
Sa, 18.09. 14:00 330 m 1/8 1/8 - - -
Sa, 18.09. 8:00 - 0/8 0/8 - - -
Sa, 18.09. 2:00 - 0/8 0/8 - - -
Fr, 17.09. 20:00 210 m 1/8 1/8 - - -
Ortszeit Bedeckungsgrad in Achtel und Wolkenuntergrenze
So, 19.09. 17:00 8
So, 19.09. 16:50 9 9 9
So, 19.09. 16:40 9 9 9
So, 19.09. 16:30 9 9 9
So, 19.09. 16:20 9 9 9
So, 19.09. 16:10 9 9 9
So, 19.09. 16:00 9 9 9
So, 19.09. 15:30 2(330m) 9 9
So, 19.09. 15:00 2(270m)
So, 19.09. 14:30 6(180m) 5(330m)
So, 19.09. 14:00 7(120m)
Ortszeit Luftdruck NN (hPa) Tendenz (hPa in 3 Std.)
So, 19.09. 14:00 1015 - 0,2
So, 19.09. 8:00 1016 - 0,6
So, 19.09. 2:00 1017 - 0,2
Sa, 18.09. 20:00 1016 - 0,5
Sa, 18.09. 14:00 1017 + 0,1
Sa, 18.09. 8:00 1016 + 0,2
Sa, 18.09. 2:00 1017 + 0,1
Fr, 17.09. 20:00 1016 - 0,3
Ortszeit Luftdruck NN (hPa) Tendenz (hPa in 3 Std.)
So, 19.09. 17:00 1016 - 0,2
So, 19.09. 16:50 1016 keine Meldung
So, 19.09. 16:40 1016 keine Meldung
So, 19.09. 16:30 1016 - 0,3
So, 19.09. 16:20 1016 keine Meldung
So, 19.09. 16:10 1016 keine Meldung
So, 19.09. 16:00 1016 - 0,3
So, 19.09. 15:30 1016 - 0,5
So, 19.09. 15:00 1016 - 0,4
So, 19.09. 14:30 1015 - 0,2
So, 19.09. 14:00 1015 - 0,2
Ortszeit Schneehöhe (cm)
So, 19.09. 14:00 0
So, 19.09. 8:00 0
So, 19.09. 2:00 0
Sa, 18.09. 20:00 0
Sa, 18.09. 14:00 0
Sa, 18.09. 8:00 0
Sa, 18.09. 2:00 0
Fr, 17.09. 20:00 0
Ortszeit Schneehöhe (cm)
So, 19.09. 17:00 0
So, 19.09. 16:50 0
So, 19.09. 16:40 0
So, 19.09. 16:30 0
So, 19.09. 16:20 0
So, 19.09. 16:10 0
So, 19.09. 16:00 0
So, 19.09. 15:30 0
So, 19.09. 15:00 0
So, 19.09. 14:30 0
So, 19.09. 14:00 0
Link zu dieser Seite / Seite empfehlen

Das Wetter in ...